When you browse on this site, cookies collect data to enhance your experience and personalize the content and advertising you see.
Visit our Privacy Policy to learn more. By continuing to use the site, you agree to this use of cookies and data.
  • In France
  • List of Countries
  • For 7 days
  • Water Temperature
  • Weather Map
  • Weather Widgets
  • user-avatar
    Login

    Hourly Weather Holhol

    Today, 7 December, Saturday

    Time Temperature Precipitation Wind Pressure Humidity
    00:00 +25°C° 0 mm 1 mps 715 mmHg 64%
    01:00 +24°C° 0 mm 1 mps 714 mmHg 65%
    02:00 +24°C° 0 mm 2 mps 714 mmHg 65%
    03:00 +24°C° 0 mm 2 mps 714 mmHg 67%
    04:00 +24°C° 0 mm 1 mps 714 mmHg 70%
    05:00 +24°C° 0 mm 1 mps 714 mmHg 72%
    06:00 +23°C° 0 mm 1 mps 714 mmHg 75%
    07:00 +24°C° 0 mm 1 mps 715 mmHg 69%
    08:00 +25°C° 0 mm 1 mps 715 mmHg 63%
    09:00 +26°C° 0 mm 1 mps 715 mmHg 57%
    10:00 +27°C° 0 mm 2 mps 715 mmHg 55%
    11:00 +28°C° 0 mm 4 mps 715 mmHg 52%
    12:00 +29°C° 0 mm 5 mps 715 mmHg 49%
    13:00 +29°C° 0 mm 5 mps 714 mmHg 49%
    14:00 +29°C° 0 mm 5 mps 714 mmHg 50%
    15:00 +29°C° 0 mm 5 mps 713 mmHg 50%
    16:00 +28°C° 0 mm 5 mps 713 mmHg 55%
    17:00 +27°C° 0 mm 5 mps 714 mmHg 60%
    18:00 +26°C° 0 mm 4 mps 714 mmHg 65%
    19:00 +26°C° 0 mm 4 mps 714 mmHg 69%
    20:00 +26°C° 0 mm 4 mps 714 mmHg 72%
    21:00 +25°C° 0 mm 4 mps 714 mmHg 76%
    22:00 +25°C° 0 mm 3 mps 714 mmHg 77%
    23:00 +25°C° 0 mm 3 mps 714 mmHg 79%

    Tomorrow, 8 December, Sunday

    Time Temperature Precipitation Wind Pressure Humidity
    00:00 +25°C° 0 mm 3 mps 714 mmHg 80%
    01:00 +25°C° 0 mm 2 mps 714 mmHg 81%
    02:00 +25°C° 0 mm 2 mps 713 mmHg 81%
    03:00 +24°C° 0 mm 1 mps 713 mmHg 82%
    04:00 +24°C° 0.2 mm 1 mps 713 mmHg 83%
    05:00 +24°C° 0.2 mm 1 mps 714 mmHg 83%
    06:00 +24°C° 0.2 mm 1 mps 714 mmHg 84%
    07:00 +25°C° 0.9 mm 1 mps 714 mmHg 82%
    08:00 +25°C° 0.9 mm 2 mps 715 mmHg 80%
    09:00 +25°C° 0.9 mm 2 mps 715 mmHg 77%
    10:00 +26°C° 0.3 mm 3 mps 715 mmHg 72%
    11:00 +27°C° 0.3 mm 4 mps 714 mmHg 67%
    12:00 +28°C° 0.3 mm 5 mps 714 mmHg 62%
    13:00 +29°C° 0.2 mm 5 mps 713 mmHg 61%
    14:00 +29°C° 0.2 mm 6 mps 713 mmHg 60%
    15:00 +29°C° 0.2 mm 6 mps 712 mmHg 59%
    16:00 +28°C° 0.2 mm 6 mps 713 mmHg 63%
    17:00 +28°C° 0.2 mm 5 mps 713 mmHg 66%
    18:00 +27°C° 0.2 mm 5 mps 713 mmHg 70%
    19:00 +27°C° 0.2 mm 4 mps 713 mmHg 71%
    20:00 +26°C° 0.2 mm 4 mps 714 mmHg 73%
    21:00 +26°C° 0.2 mm 3 mps 714 mmHg 75%
    22:00 +26°C° 0 mm 3 mps 714 mmHg 76%
    23:00 +26°C° 0 mm 3 mps 714 mmHg 77%

    Day after tomorrow, 9 December, Monday

    Time Temperature Precipitation Wind Pressure Humidity
    00:00 +25°C° 0 mm 3 mps 714 mmHg 78%
    01:00 +25°C° 0 mm 3 mps 713 mmHg 79%
    02:00 +25°C° 0 mm 3 mps 713 mmHg 81%
    03:00 +25°C° 0 mm 2 mps 713 mmHg 82%
    04:00 +25°C° 0 mm 2 mps 713 mmHg 83%
    05:00 +25°C° 0 mm 2 mps 713 mmHg 83%
    06:00 +25°C° 0 mm 1 mps 714 mmHg 84%
    07:00 +25°C° 0 mm 2 mps 714 mmHg 79%
    08:00 +26°C° 0 mm 2 mps 715 mmHg 74%
    09:00 +27°C° 0 mm 3 mps 715 mmHg 70%
    10:00 +28°C° 0 mm 3 mps 715 mmHg 66%
    11:00 +28°C° 0 mm 4 mps 715 mmHg 62%
    12:00 +29°C° 0 mm 4 mps 714 mmHg 59%
    13:00 +29°C° 0 mm 4 mps 714 mmHg 58%
    14:00 +30°C° 0 mm 5 mps 713 mmHg 57%
    15:00 +30°C° 0 mm 5 mps 712 mmHg 56%
    16:00 +29°C° 0 mm 5 mps 713 mmHg 60%
    17:00 +28°C° 0 mm 5 mps 713 mmHg 63%
    18:00 +27°C° 0 mm 5 mps 713 mmHg 66%
    19:00 +27°C° 0 mm 4 mps 713 mmHg 69%
    20:00 +27°C° 0 mm 4 mps 713 mmHg 72%
    21:00 +26°C° 0 mm 4 mps 714 mmHg 75%
    22:00 +26°C° 0 mm 3 mps 714 mmHg 77%
    23:00 +26°C° 0 mm 3 mps 714 mmHg 79%

    10 December, Tuesday

    Time Temperature Precipitation Wind Pressure Humidity
    00:00 +25°C° 0 mm 3 mps 714 mmHg 81%
    01:00 +25°C° 0 mm 3 mps 713 mmHg 82%
    02:00 +25°C° 0 mm 2 mps 713 mmHg 83%
    03:00 +25°C° 0 mm 2 mps 712 mmHg 84%
    04:00 +25°C° 0 mm 2 mps 713 mmHg 84%
    05:00 +25°C° 0 mm 2 mps 713 mmHg 85%
    06:00 +25°C° 0 mm 2 mps 714 mmHg 86%
    07:00 +25°C° 0.2 mm 3 mps 714 mmHg 82%
    08:00 +26°C° 0.2 mm 3 mps 715 mmHg 79%
    09:00 +27°C° 0.2 mm 4 mps 715 mmHg 75%
    10:00 +27°C° 0.2 mm 5 mps 715 mmHg 73%
    11:00 +28°C° 0.2 mm 6 mps 714 mmHg 72%
    12:00 +28°C° 0.2 mm 6 mps 714 mmHg 70%
    13:00 +28°C° 0.2 mm 6 mps 713 mmHg 71%
    14:00 +28°C° 0.2 mm 6 mps 713 mmHg 72%
    15:00 +27°C° 0.2 mm 6 mps 712 mmHg 73%
    16:00 +27°C° 0.1 mm 6 mps 712 mmHg 76%
    17:00 +26°C° 0.1 mm 6 mps 712 mmHg 79%
    18:00 +26°C° 0.1 mm 5 mps 712 mmHg 82%
    19:00 +26°C° 0.1 mm 5 mps 713 mmHg 83%
    20:00 +25°C° 0.1 mm 4 mps 713 mmHg 84%
    21:00 +25°C° 0.1 mm 4 mps 713 mmHg 85%
    22:00 +25°C° 0 mm 3 mps 713 mmHg 86%
    23:00 +25°C° 0 mm 3 mps 713 mmHg 86%

    11 December, Wednesday

    Time Temperature Precipitation Wind Pressure Humidity
    00:00 +25°C° 0 mm 3 mps 713 mmHg 87%
    01:00 +25°C° 0 mm 2 mps 713 mmHg 88%
    02:00 +25°C° 0 mm 2 mps 713 mmHg 89%
    03:00 +25°C° 0 mm 2 mps 712 mmHg 89%
    04:00 +24°C° 0.2 mm 2 mps 713 mmHg 90%
    05:00 +24°C° 0.2 mm 3 mps 713 mmHg 91%
    06:00 +24°C° 0.2 mm 3 mps 713 mmHg 91%
    07:00 +25°C° 0.4 mm 3 mps 713 mmHg 89%
    08:00 +25°C° 0.4 mm 4 mps 714 mmHg 87%
    09:00 +25°C° 0.4 mm 5 mps 714 mmHg 85%
    10:00 +26°C° 0.3 mm 5 mps 714 mmHg 83%
    11:00 +26°C° 0.3 mm 5 mps 713 mmHg 81%
    12:00 +26°C° 0.3 mm 5 mps 713 mmHg 79%
    13:00 +27°C° 0.1 mm 5 mps 712 mmHg 77%
    14:00 +27°C° 0.1 mm 5 mps 712 mmHg 75%
    15:00 +28°C° 0.1 mm 5 mps 711 mmHg 73%
    16:00 +27°C° 0 mm 5 mps 711 mmHg 77%
    17:00 +26°C° 0 mm 5 mps 711 mmHg 80%
    18:00 +26°C° 0 mm 5 mps 711 mmHg 84%
    19:00 +26°C° 0 mm 4 mps 712 mmHg 85%
    20:00 +25°C° 0 mm 4 mps 712 mmHg 87%
    21:00 +25°C° 0 mm 4 mps 713 mmHg 88%
    22:00 +25°C° 0 mm 3 mps 713 mmHg 88%
    23:00 +25°C° 0 mm 3 mps 712 mmHg 89%

    12 December, Thursday

    Time Temperature Precipitation Wind Pressure Humidity
    00:00 +25°C° 0 mm 3 mps 712 mmHg 89%
    01:00 +24°C° 0.1 mm 3 mps 712 mmHg 89%
    02:00 +24°C° 0.1 mm 3 mps 712 mmHg 90%
    03:00 +24°C° 0.1 mm 3 mps 712 mmHg 90%
    04:00 +24°C° 0.1 mm 3 mps 712 mmHg 90%
    05:00 +24°C° 0.1 mm 3 mps 713 mmHg 89%
    06:00 +24°C° 0.1 mm 3 mps 713 mmHg 89%
    07:00 +25°C° 0 mm 3 mps 713 mmHg 84%
    08:00 +26°C° 0 mm 3 mps 714 mmHg 79%
    09:00 +26°C° 0 mm 3 mps 715 mmHg 74%
    10:00 +27°C° 0 mm 4 mps 714 mmHg 69%
    11:00 +28°C° 0 mm 4 mps 714 mmHg 64%
    12:00 +29°C° 0 mm 4 mps 713 mmHg 59%
    13:00 +29°C° 0 mm 4 mps 713 mmHg 58%
    14:00 +30°C° 0 mm 4 mps 712 mmHg 57%
    15:00 +30°C° 0 mm 5 mps 712 mmHg 55%
    16:00 +29°C° 0 mm 5 mps 712 mmHg 62%
    17:00 +28°C° 0 mm 5 mps 712 mmHg 69%
    18:00 +27°C° 0 mm 5 mps 712 mmHg 76%
    19:00 +26°C° 0 mm 5 mps 712 mmHg 79%
    20:00 +26°C° 0 mm 4 mps 713 mmHg 82%
    21:00 +26°C° 0 mm 4 mps 713 mmHg 84%
    22:00 +26°C° 0 mm 4 mps 713 mmHg 85%
    23:00 +26°C° 0 mm 4 mps 713 mmHg 85%
    Show more